This is the latest recevied weather packets stored in our database for station/object N1OF. If no packets are shown the sender has not sent any weather packets the latest 10 day(s).
| Time | Temp. | Humidity | Pressure | Rain* | Wind** | Luminosity | Snow |
|---|---|---|---|---|---|---|---|
| 1777080467 | 17.78° C | 95% | 1008.7 hPa | 0 mm | - | - | - |
| 1777080161 | 17.78° C | 95% | 1008.9 hPa | 1.27 mm | - | - | - |
| 1777079860 | 17.78° C | 95% | 1008.5 hPa | 1.27 mm | - | - | - |
| 1777079555 | 17.78° C | 95% | 1008.4 hPa | 0 mm | - | - | - |
| 1777079251 | 17.78° C | 95% | 1008.4 hPa | 0 mm | - | - | - |
| 1777078947 | 17.78° C | 95% | 1008.6 hPa | 0 mm | - | - | - |
| 1777078644 | 17.78° C | 95% | 1008.3 hPa | 0 mm | - | - | - |
| 1777078342 | 17.78° C | 95% | 1008 hPa | 0 mm | - | - | - |
| 1777078041 | 17.22° C | 95% | 1008.1 hPa | 0 mm | - | - | - |
| 1777077736 | 17.22° C | 95% | 1007.6 hPa | 1.78 mm | - | - | - |
| 1777077433 | 17.22° C | 95% | 1007.4 hPa | 1.78 mm | - | - | - |
| 1777077131 | 17.22° C | 95% | 1007.8 hPa | 0 mm | - | - | - |
| 1777076827 | 17.78° C | 94% | 1008 hPa | 0 mm | - | - | - |
| 1777076523 | 17.78° C | 94% | 1008.2 hPa | 1.27 mm | - | - | - |
| 1777076218 | 17.78° C | 94% | 1008.1 hPa | 1.78 mm | - | - | - |
| 1777075915 | 17.78° C | 94% | 1008.2 hPa | 4.83 mm | - | - | - |
| 1777075610 | 17.78° C | 94% | 1008.5 hPa | 6.1 mm | - | - | - |
| 1777075306 | 17.78° C | 93% | 1008.2 hPa | 7.87 mm | - | - | - |
| 1777075003 | 17.78° C | 92% | 1008.2 hPa | 13.21 mm | - | - | - |
| 1777074698 | 18.33° C | 91% | 1008.3 hPa | 19.81 mm | - | - | - |
| 1777074393 | 18.33° C | 89% | 1008.5 hPa | 10.67 mm | - | - | - |
| 1777074091 | 19.44° C | 84% | 1008.4 hPa | 1.78 mm | - | - | - |
| 1777073787 | 20° C | 82% | 1008.3 hPa | 0 mm | - | - | - |
| 1777073482 | 20.56° C | 79% | 1008.1 hPa | 0 mm | - | - | - |
| 1777073178 | 20.56° C | 77% | 1007.8 hPa | 0 mm | - | - | - |
* Rain latest hour (hover to see other rain measurements)
** Current wind speed in m/s (hover to see current wind gust speed)